Location: Delettes
(50.6178°N, 2.2123°E)
Time: 14:03:33
(UTC+00:00)

Cosmos 2082 - Pass Details

Date: 27 February 2020
Orbit: 832 x 857 km, 71.0° (Epoch: 24 March)

Event Time Altitude Azimuth Distance (km) Brightness Sun altitude
Rises 20:02:23 0° 331° (NNW) 3,434 7.6 -25.0°
Reaches altitude 10° 20:04:51 10° 334° (NNW) 2,497 6.7 -25.3°
Maximum altitude 20:10:36 69° 58° (ENE) 918 3.6 -26.2°
Enters shadow 20:10:41 69° 65° (ENE) 919 3.6 -26.2°
